Weather in Belovo

Russia / Altai Krai     52°56′47″N   82°15′38″E
temp.,
°C
wind,
m/s
gust,
m/s
humid.,
%
clouds,
%
prec.,
mm/h
press.,
hPa
HPBL,
m
16 may, sun
sun1601:00+15sw410455 0.0 1019148
04:00+14sw49505 0.0 1018143
07:00+14sw310555 0.0 1018219
10:00+21wsw584114 0.2 1016587
13:00+26wsw693238 0.9 10151696
16:00+27w793184 0.0 10132370
19:00+26w610330 0.0 10111667
22:00+18nnw81267100 0.3 1013509
17 may, mon
mon1701:00+15n2385100 1.6 1013166
04:00+14sse119330 0.0 101313
07:00+15n228995 0.0 1015174
10:00+19nne336757 0.0 1016929
13:00+22n334718 0.0 10151736
16:00+24nw454012 0.0 10152277
19:00+21n455322 0.0 1016730
22:00+17sse11705 0.0 101511
18 may, tue
tue1801:00+15ssw367413 0.0 1015105
04:00+15sw4107518 0.1 1013204
07:00+17sw614695 0.4 1011372
10:00+23wsw6104515 0.0 1009618
13:00+28wnw7113129 0.0 10082681
16:00+28wnw913285 0.0 10073312
19:00+25nw713375 0.0 10061823
22:00+20wnw4950100 0.0 1007245
19 may, wed
wed1901:00+16wsw3668100 0.0 1007120
04:00+15sw3879100 0.0 1005216
07:00+15wsw5118063 0.3 1002547
10:00+20w8116050 0.6 10011241
13:00+21w10144596 1.0 9992269
16:00+16nw11146975 0.7 10011345
19:00+6n91783100 0.7 1008990
22:00+6nne5135588 0.0 10131172
20 may, thu
thu2001:00+5nw36665 0.0 1016133
04:00+4nw367285 0.0 101699
07:00+6nnw5880100 0.0 1012438
10:00+4n7993100 1.1 1015691
13:00+6n9126897 2.4 10171568
16:00+8n9114690 0.5 10182253
19:00+7nne8135774 1.1 10211824
22:00+5n511505 0.0 1024432